Probability
0 0 0 0 0 0 0 0 0 0 0 0 0 0 0 0 0 0 0 0 0 0 0 0 0 0 0 0 0 0 0 0 0 0 0 0 0 0 0 0 0 0 0 0 0 0 0 0 0
0 0 0 0 0 0 0 0 0 0 0 0 0 0 0 0 0 0 0 0 0 0 0 0 0 0 0 0 0 0 0 0 0 0 0 0 0 0 0 0 0 0 0 0 0 0 0 0 0
0 0 0 0 0 0 0 0 0 0 0 0 0 0 0 0 0 0 0 0 0 0 0 0 0 0 0 0 0 0 0 0 0 0 0 0 0 0 0 0 0 0 0 0 0 0 0 0 0
0 0 0 0 0 0 0 0 0 0 0 0 0 0 0 0 0 0 0 0 0 0 0 0 0 0 0 0 0 0 0 0 0 0 0 0 0 0 0 0 0 0 0 0 0 0 0 0 0
0 0 0 0 0 0 0 0 0 0 0 0 0 0 0 0 0 0 0 0 0 0 0 0 0 0 0 0 0 0 0 0 0 0 0 0 0 0 0 0 0 0 0 0 0 0 0 0 0
0 0 0 0 0 0 0 0 0 0 0 0 0 0 0 0 0 0 0 0 0 0 0 0 0 0 0 0 0 0 0 0 0 0 0 0 0 0 0 0 0 0 0 0 0 0 0 0 0
0 0 0 0 0 0 0 0 0 0 0 0 0 0 0 0 0 0 0 0 0 0 0 0 0 0 0 0 0 0 0 0 0 0 0 0 0 0 0 0 0 0 0 0 0 0 0 0 0
0 0 0 0 0 0 0 0 0 0 0 0 0 0 0 0 0 0 0 0 0 0 0 0 0 0 0 0 0 0 0 0 0 0 0 0 0 0 0 0 0 0 0 0 0 0 0 0 0
0 0 0 0 0 0 0 0 0 0 0 0 0 0 0 0 0 0 0 0 0 0 0 0 0 0 0 0 0 0 0 0 0 0 0 0 0 0 0 0 0 0 0 0 0 0 0 0 0
0 0 0 0 0 0 0 0 0 0 0 0 0 0 0 0 0 0 0 0 0 0 0 0 0 0 0 0 0 0 0 0 0 0 0 0 0 0 0 0 0 0 0 0 0 0 0 0 0
0 0 0 0 0 0 0 0 0 0 0 0 0 0 0 0 0 0 0 0 0 0 0 0 0 0 0 0 0 0 0 0 0 0 0 0 0 0 0 0 0 0 0 0 0 0 0 0 0
0 0 0 0 0 0 0 0 0 0 0 0 0 0 0 0 0 0 0 0 0 0 0 0 0 0 0 0 0 0 0 0 0 0 0 0 0 0 0 0 0 0 0 0 0 0 0 0 0
0 0 0 0 0 0 0 0 0 0 0 0 0 0 0 0 0 0 0 0 0 0 0 0 0 0 0 0 0 0 0 0 0 0 0 0 0 0 0 0 0 0 0 0 0 0 0 0 0
0 0 0 0 0 0 0 0 0 0 0 0 0 0 0 0 0 0 0 0 0 0 0 0 0 0 0 0 0 0 0 0 0 0 0 0 0 0 0 0 0 0 0 0 0 0 0 0 0
0 0 0 0 0 0 0 0 0 0 0 0 0 0 0 0 0 0 0 0 0 0 0 0 0 0 0 0 0 0 0 0 0 0 0 0 0 0 0 0 0 0 0 0 0 0 0 0 0
0 0 0 0 0 0 0 0 0 0 0 0 0 0 0 0 0 0 0 0 0 0 0 0 0 0 0 0 0 0 0 0 0 0 0 0 0 0 0 0 0 0 0 0 0 0 0 0 0
0 0 0 0 0 0 0 0 0 0 0 0 0 0 0 0 0 0 0 0 0 0 0 0 0 0 0 0 0 0 0 0 0 0 0 0 0 0 0 0 0 0 0 0 0 0 0 0 0
0 0 0 0 0 0 0 0 0 0 0 0 0 0 0 0 0 0 0 0 0 0 0 0 0 0 0 0 0 0 0 0 0 0 0 0 0 0 0 0 0 0 0 0 0 0 0 0 0
0 0 0 0 0 0 0 0 0 0 0 0 0 0 0 0 0 0 0 0 0 0 0 0 0 0 0 0 0 0 0 0 0 0 0 0 0 0 0 0 0 0 0 0 0 0 0 0 0
0 0 0 0 0 0 0 0 0 0 0 0 0 0 0 0 0 0 0 0 0 0 0 0 0 0 0 0 0 0 0 0 0 0 0 0 0 0 0 0 0 0 0 0 0 0 0 0 0
0 0 0 0 0 0 0 0 0 0 0 0 0 0 0 0 0 0 0 0 0 0 1 1 0 0 0 0 0 0 0 0 0 0 0 0 0 0 0 0 0 0 0 0 0 0 0 0 0
0 0 0 0 0 0 0 0 0 0 0 0 0 0 0 0 0 0 0 0 0 1 2 2 1 0 0 0 0 0 0 0 0 0 0 0 0 0 0 0 0 0 0 0 0 0 0 0 0
0 0 0 0 0 0 0 0 0 0 0 0 0 0 0 0 0 0 0 0 0 1 2 3 2 1 0 0 0 0 0 0 0 0 0 0 0 0 0 0 0 0 0 0 0 0 0 0 0
0 0 0 0 0 0 0 0 0 0 0 0 0 0 0 0 0 0 0 0 0 1 2 3 2 1 0 0 0 0 0 0 0 0 0 0 0 0 0 0 0 0 0 0 0 0 0 0 0
0 0 0 0 0 0 0 0 0 0 0 0 0 0 0 0 0 0 0 0 0 0 1 3 3 1 0 0 0 0 0 0 0 0 0 0 0 0 0 0 0 0 0 0 0 0 0 0 0
0 0 0 0 0 0 0 0 0 0 0 0 0 0 0 0 0 0 0 0 0 0 1 2 3 2 1 0 0 0 0 0 0 0 0 0 0 0 0 0 0 0 0 0 0 0 0 0 0
0 0 0 0 0 0 0 0 0 0 0 0 0 0 0 0 0 0 0 0 0 0 1 2 2 1 1 0 0 0 0 0 0 0 0 0 0 0 1 1 1 0 0 0 0 0 0 0 0
0 0 0 0 0 0 0 0 0 0 0 0 0 0 0 0 0 0 0 0 0 0 1 1 0 0 0 0 0 0 0 0 0 0 0 0 0 0 1 2 2 1 1 1 0 0 0 0 0
0 0 1 0 0 0 0 0 0 0 0 0 0 0 0 0 0 0 0 0 0 0 0 0 0 0 0 0 0 0 0 0 0 0 0 0 0 0 1 3 3 3 2 2 1 0 0 0 0
0 0 1 0 0 0 0 0 0 0 0 0 0 0 0 0 0 0 0 0 0 0 0 0 0 0 0 0 0 0 0 0 0 0 0 0 0 0 1 2 3 3 3 3 2 1 0 0 0
Wind_Speed
15 9 2 4 7 6 1 1 3 2 2 1 5 9 8 4 2 4 3 10 12 10 9 10 12 13 14 14 13 13 13 13 13 13 14 14 14 14 15 15 15 15 16 16 16 16 15 15 15
9 4 5 6 6 2 2 1 4 3 4 4 6 6 6 3 2 6 5 10 13 11 9 9 12 13 14 14 13 13 13 13 13 13 13 13 14 14 14 14 14 15 15 15 15 15 14 13 13
8 3 5 5 3 4 3 3 5 3 2 4 5 5 5 4 4 5 7 12 11 9 8 10 12 14 14 14 13 13 13 13 13 13 13 13 13 13 13 13 14 14 14 14 14 13 12 12 11
4 5 5 5 0 3 6 6 5 4 2 4 5 5 3 1 5 6 12 12 11 9 8 9 12 14 14 13 13 13 13 12 12 12 12 13 13 13 13 13 13 13 13 13 12 12 11 10 10
4 5 5 2 1 2 3 6 6 5 4 3 5 5 2 3 6 12 12 12 12 8 7 9 12 12 13 13 13 13 12 12 12 12 12 12 12 12 12 12 12 12 12 12 11 10 9 9 9
5 5 3 1 2 2 2 3 4 4 3 4 6 5 1 1 7 10 10 10 11 10 8 8 11 11 11 12 13 12 12 12 12 12 12 12 12 12 12 12 12 12 11 11 10 9 8 7 7
4 3 2 2 2 2 2 2 5 4 3 4 7 7 3 3 5 7 9 9 9 9 8 6 7 8 10 11 11 11 11 11 11 11 11 9 9 10 10 10 11 11 11 10 9 8 6 5 5
4 4 1 1 2 3 2 1 3 5 4 3 6 9 8 8 6 7 8 8 9 8 8 7 7 6 6 7 10 11 10 10 10 10 10 9 9 8 8 7 9 10 10 9 8 7 5 4 3
3 4 2 3 3 2 2 1 2 1 5 3 3 4 6 11 9 9 7 6 7 8 8 8 7 7 6 6 8 9 10 10 10 8 10 8 5 5 5 6 8 9 9 9 8 7 4 2 0
3 3 5 3 2 2 1 0 0 3 3 2 3 3 6 11 11 10 10 10 10 11 10 8 9 8 7 6 6 5 5 6 6 5 6 4 4 4 4 7 8 8 8 8 8 7 4 2 1
3 5 4 2 1 0 1 2 1 4 3 4 6 7 9 9 10 10 10 10 10 9 9 9 10 9 8 6 6 4 4 4 5 6 6 4 4 3 3 3 4 5 6 4 4 4 2 2 2
2 3 3 2 1 1 1 1 1 3 5 4 7 13 13 12 14 14 12 10 8 8 9 9 10 9 9 7 6 6 5 5 5 6 7 5 3 4 4 3 3 3 3 3 3 2 3 3 4
4 3 3 3 2 2 1 2 2 5 5 1 7 11 13 14 13 11 9 8 8 10 10 10 10 10 9 8 7 7 7 7 6 6 7 7 5 5 5 4 4 4 3 4 4 4 4 4 4
5 4 3 3 3 3 3 4 3 8 3 3 8 11 13 14 14 10 10 11 12 12 12 10 11 11 10 9 8 7 7 7 7 7 8 9 6 6 6 5 5 5 4 4 4 5 5 4 4
3 2 5 5 4 4 2 7 8 9 3 5 8 9 11 12 12 14 15 15 15 13 12 12 12 11 11 10 10 7 7 7 7 7 8 9 8 7 7 6 6 5 5 5 4 5 4 4 4
3 4 7 6 6 5 6 12 9 7 6 8 8 8 10 12 13 14 14 14 13 11 12 13 11 12 12 11 9 7 7 7 7 7 7 10 10 9 7 6 6 6 5 5 4 4 4 4 4
5 8 9 6 7 6 9 10 8 6 7 9 8 9 10 10 12 13 14 14 14 14 13 13 13 13 13 11 8 7 7 7 7 6 7 9 10 10 8 7 6 6 5 5 5 5 4 5 5
9 8 7 9 6 8 10 11 9 6 8 10 9 9 9 11 14 13 13 14 13 13 13 13 13 13 11 8 6 5 6 7 7 7 8 9 9 10 9 7 7 7 6 6 6 6 5 4 4
7 8 9 7 6 8 12 14 13 10 8 10 10 10 11 13 13 10 11 12 11 11 12 13 13 13 11 8 9 9 10 8 7 8 9 10 10 10 10 8 7 8 8 8 8 6 6 6 3
8 9 8 5 5 7 9 14 12 12 12 12 13 13 13 11 9 9 10 10 12 13 14 14 14 13 13 11 9 6 6 5 7 6 8 10 11 11 10 10 9 9 8 8 9 8 5 5 5
14 13 11 6 2 4 4 10 12 11 11 11 12 12 11 13 13 11 10 11 12 13 14 13 15 15 14 12 6 4 3 3 5 8 9 11 12 12 11 12 10 10 10 10 11 10 10 8 6
17 12 10 8 5 6 6 9 9 11 12 13 14 12 13 13 12 11 10 10 12 13 12 13 13 13 13 12 10 11 11 12 12 9 8 9 11 12 13 12 12 11 10 11 11 11 10 9 8
7 7 10 10 9 8 7 9 9 7 13 15 14 14 13 12 11 11 11 11 11 11 10 11 11 11 12 12 14 13 13 12 7 6 7 9 9 12 12 13 12 13 11 12 11 10 11 10 10
5 4 3 5 7 16 16 12 11 10 14 10 11 13 13 12 11 10 9 8 8 7 8 8 10 10 10 12 13 14 15 13 9 9 9 9 8 9 12 12 12 13 12 13 13 12 13 12 12
9 8 7 9 11 13 10 13 14 10 11 13 13 13 12 10 10 9 8 7 7 7 7 7 9 9 9 11 12 13 14 13 13 11 10 9 8 9 12 12 13 12 13 13 12 12 13 14 13
16 15 12 10 9 6 7 15 12 8 10 10 11 11 9 9 9 9 8 7 7 6 7 7 7 8 7 8 10 10 10 8 8 10 9 9 9 9 9 11 13 13 13 13 12 11 13 11 14
13 15 10 4 2 4 8 8 8 5 8 10 9 8 9 9 8 7 6 5 5 5 5 6 6 6 6 6 7 7 7 8 8 8 8 7 7 7 8 10 11 12 13 13 12 11 13 12 13
11 10 7 10 10 12 8 9 9 6 9 9 9 9 8 6 5 4 4 3 3 4 3 3 4 5 5 4 5 4 5 6 6 5 6 7 7 7 7 9 10 11 12 12 12 12 12 13 13
11 13 10 8 7 8 9 10 8 10 11 11 10 8 7 6 5 4 2 1 1 2 2 2 2 2 2 2 2 3 3 4 4 4 5 6 6 6 7 8 9 10 11 12 12 13 12 14 14
12 14 15 12 10 8 9 11 3 6 7 8 8 6 5 4 3 3 2 2 2 2 1 1 1 1 2 2 2 2 2 2 3 4 5 5 6 6 7 7 7 8 9 10 12 13 13 14 15
Wind_Direction
324 326 41 54 53 52 57 235 155 114 75 63 83 91 98 99 134 153 131 139 135 140 142 140 139 135 131 127 124 121 118 116 114 112 111 108 107 106 104 102 100 98 97 97 97 97 96 93 89
319 338 45 56 80 78 289 251 128 148 161 129 87 90 84 75 91 116 126 145 139 140 142 141 138 137 135 131 128 126 123 120 119 117 115 113 111 111 109 107 105 103 102 102 102 102 100 94 88
328 36 68 67 102 166 187 205 159 159 145 104 78 70 106 138 136 144 153 145 136 138 139 142 142 141 138 136 133 131 128 126 125 122 119 116 113 114 113 112 110 109 108 107 107 107 103 94 88
15 31 51 70 116 215 178 190 166 133 90 83 101 77 67 125 167 148 142 141 135 136 139 146 145 144 142 141 139 137 135 133 130 127 125 121 117 117 117 117 115 114 113 113 113 112 106 97 89
49 62 51 32 280 259 188 183 161 140 145 115 107 105 59 341 124 132 140 140 138 138 142 149 147 147 147 147 146 144 141 138 136 133 131 128 125 124 122 122 121 120 119 119 119 117 110 99 89
44 60 80 257 273 278 225 182 144 134 149 124 112 112 140 143 128 139 141 140 142 144 146 148 149 150 151 150 150 148 147 145 142 140 137 135 135 133 131 132 131 128 127 127 127 124 116 103 88
86 91 160 209 247 278 240 162 140 143 149 155 130 118 151 193 161 143 139 137 141 146 147 147 152 154 155 153 152 152 152 150 148 145 141 138 137 136 135 136 139 137 137 136 135 134 128 111 87
119 105 149 221 208 255 283 119 140 142 162 126 120 145 179 198 169 134 132 136 145 150 155 157 157 157 156 156 157 157 156 154 150 146 142 141 138 137 138 140 143 146 146 146 146 146 145 129 90
91 92 199 221 199 240 313 50 8 113 109 66 66 168 187 154 144 132 135 143 157 164 167 166 166 164 162 161 164 161 160 159 154 152 152 147 143 143 145 153 153 154 155 157 160 162 161 148 63
105 167 214 221 207 213 315 56 210 82 83 77 43 32 122 143 153 159 167 173 176 179 179 176 175 173 169 171 163 164 165 164 161 161 161 157 157 164 164 166 165 164 165 170 175 180 178 169 304
171 195 211 242 266 262 349 335 341 129 171 188 177 167 153 162 170 179 184 185 185 182 182 182 181 178 176 173 170 173 170 170 172 173 174 169 165 169 168 165 169 171 172 175 185 186 191 210 226
206 237 223 230 293 42 286 306 329 194 212 217 184 164 167 178 188 192 193 192 185 186 192 188 183 181 181 177 179 180 180 182 184 186 183 174 173 178 177 179 182 181 180 183 190 198 213 224 229
217 249 254 248 258 236 254 257 259 253 252 210 144 160 179 189 198 203 200 196 192 195 197 193 187 186 183 180 185 186 189 190 191 190 192 186 183 185 185 189 190 193 191 192 198 209 219 225 231
205 225 256 251 247 234 230 262 247 252 234 155 163 183 194 199 202 201 202 205 205 204 202 196 193 190 186 188 189 190 191 191 192 195 195 193 192 189 187 193 197 201 200 200 201 207 213 222 224
181 223 273 249 218 223 202 265 235 242 232 212 205 204 207 211 206 207 207 207 207 207 203 199 197 192 191 193 194 192 192 191 195 198 198 197 197 194 193 196 202 204 201 202 206 213 213 222 225
163 199 238 242 203 201 182 247 248 240 221 232 228 221 218 219 215 216 214 212 208 204 203 204 199 196 198 197 196 195 193 195 200 199 199 201 201 197 196 202 208 201 196 198 202 205 212 223 224
190 212 219 235 208 191 198 241 248 234 215 232 234 229 227 229 227 223 217 213 209 205 203 202 201 200 201 199 197 197 195 202 203 202 205 205 205 201 200 207 207 196 199 203 205 206 203 218 226
194 203 208 211 208 194 216 238 250 248 227 234 238 236 233 232 230 222 217 215 211 207 203 202 201 202 199 195 195 199 206 210 208 208 210 207 208 206 206 210 205 196 203 210 209 210 209 214 217
187 192 210 215 202 202 227 239 243 240 237 240 242 240 237 237 237 227 219 215 210 206 202 201 201 200 192 192 199 204 213 213 212 214 212 210 210 208 209 213 207 204 213 216 210 207 214 222 190
214 215 222 243 216 213 240 249 245 234 228 228 234 239 239 241 246 236 223 212 206 205 204 203 202 199 197 201 200 202 202 212 217 216 217 215 214 212 213 215 214 209 214 217 213 208 213 216 184
222 217 212 219 260 247 264 268 245 244 234 235 235 236 237 233 236 235 223 215 208 208 207 205 205 202 201 199 184 178 185 209 213 218 221 219 216 215 216 217 216 214 214 221 218 211 212 221 209
227 215 210 213 213 240 211 262 245 231 238 237 239 238 238 238 234 230 222 218 213 212 207 206 204 203 201 194 191 193 203 214 219 218 219 217 215 218 218 218 218 219 219 223 221 215 216 216 222
214 185 203 213 218 242 222 248 260 215 232 235 234 235 237 236 233 230 224 218 214 210 203 203 201 202 198 195 199 202 214 223 224 213 217 219 219 220 221 220 219 221 222 224 221 217 216 218 224
173 144 191 210 220 240 223 226 257 208 217 224 227 231 234 232 230 230 228 216 213 208 201 199 198 204 200 198 201 206 215 220 219 218 220 221 221 222 222 222 223 223 224 224 224 222 220 223 225
175 172 201 211 217 237 202 218 247 212 209 211 220 227 230 227 223 222 220 214 210 204 202 199 198 205 203 201 205 210 217 219 221 223 224 224 223 223 223 220 223 225 226 226 223 222 225 224 225
197 193 201 206 213 233 192 224 246 216 216 218 222 226 224 225 222 221 218 209 204 200 196 193 196 204 204 205 212 215 218 221 226 226 226 225 227 229 225 220 224 226 227 227 224 226 229 227 229
192 209 213 214 226 234 228 249 282 230 223 226 229 222 223 223 217 212 212 204 197 193 193 191 192 201 205 208 213 217 219 223 230 231 230 233 234 234 227 224 226 228 228 228 226 229 230 230 231
194 178 177 208 217 231 240 233 232 209 217 222 220 219 222 213 207 205 205 196 189 185 185 177 180 192 202 207 210 215 221 226 233 235 238 240 241 238 234 230 228 229 229 228 228 232 233 233 234
186 194 199 202 207 215 238 247 220 208 209 212 215 209 201 198 197 194 182 163 144 128 139 156 170 178 185 200 210 217 229 232 236 241 246 248 251 247 241 238 234 232 231 229 230 233 233 234 237
202 203 199 207 216 213 234 254 230 211 207 197 203 204 195 188 186 174 154 117 90 86 99 125 154 181 198 196 205 225 241 247 249 253 257 258 258 256 250 246 241 239 238 234 233 236 236 236 238